ROMMA est une association bénévole à but non lucratif. Votre soutien est indispensable : ADHERER à ROMMA ou FAIRE un DON

Chambon - (38, Isère)

Oisans (2460 m)   Longitude: 06° 10' 42" E   Latitude: 45° 01' 32" N Station partenaire n°803
 

Détail journalier du     <<     >>

Température Humidité Vent Dir Rafale Dir. rafale Neige 1 Neige 2
Heure (°C) (%) (km/h) (km/h) (cm) (cm)
01:00 -4.7746NE12NE171203
02:00 -3.76211NE21NE171203
03:00 -3.65711NNE20NNE171203
04:00 -3.6516NNE16NNE171203
05:00 -3.2443ESE10ESE171203
06:00 -4.0543ENE10ENE171203
07:00 -3.4462NE7O171203
08:00 -4.0522SO7OSO171203
09:00 -1.5453N9N171203
10:00 -2.6555N9N171203
11:00 -0.4464N8N170203
12:00 -1.4536OSO13OSO171203
13:00 -0.1527SO13SO171203
14:00 -0.3568SO19OSO171203
15:00 -0.46412OSO19OSO171203
16:00 0.26411OSO17OSO171203
17:00 0.16911OSO18OSO171203
18:00 -0.5726OSO16OSO171203
19:00 -2.3831SSE8SSO171203
20:00 -3.6903ENE7ENE171203
21:00 -3.7884NE9NE171203
22:00 -4.0823N7NE171203
23:00 -3.6814NE9OSO171203
minuit -4.0764NE9NE171203

Graphique du 28-03-2019

 

Serveur OMMA